EW2996 Weather Reports


Display with metric or nautical units.
time (UTC)temp
F
wind
direction
speed
MPH
gust
MPH
rain 1hr
in
rain 24hr
in
rain mn
in
humidity
%
barometer
mb
20260504130505 53 132 4.0 11.0 0.00 0.00 0.00 53 1013.8
20260504110531 45 168 1.0 7.0 0.00 0.00 0.00 64 1014.2
20260504100521 44 142 1.0 4.0 0.00 0.00 0.00 67 1014.0
20260504082004 39 214 0.0 2.0 0.00 0.00 0.00 80 1013.3
20260504081504 39 214 1.0 2.0 0.00 0.00 0.00 81 1013.4
20260504081003 39 214 1.0 2.0 0.00 0.00 0.00 82 1013.4
20260504080503 38 214 1.0 2.0 0.00 0.00 0.00 83 1013.4
20260504050546 37 215 0.0 0.0 0.00 0.00 0.00 81 1013.4
20260504045547 37 215 0.0 0.0 0.00 0.00 0.00 80 1013.5
20260504045043 37 215 0.0 0.0 0.00 0.00 0.00 80 1013.5
20260504044549 37 215 0.0 0.0 0.00 0.00 0.00 79 1013.6
20260504044042 37 215 0.0 0.0 0.00 0.00 0.00 79 1013.7
20260504043543 37 215 0.0 0.0 0.00 0.00 0.00 77 1013.7
20260504043042 37 215 0.0 0.0 0.00 0.00 0.00 77 1013.6
20260504042541 37 215 0.0 1.0 0.00 0.00 0.00 77 1013.6
20260504042041 37 215 0.0 1.0 0.00 0.00 0.00 76 1013.5
20260504041540 37 215 0.0 1.0 0.00 0.00 0.00 75 1013.5
20260504041041 37 215 0.0 1.0 0.00 0.00 0.00 72 1013.5
20260504040538 37 215 0.0 0.0 0.00 0.00 0.00 71 1013.5
20260504040051 37 215 0.0 0.0 0.00 0.00 0.00 71 1013.5
20260504035538 37 215 0.0 0.0 0.00 0.00 0.00 72 1013.4
20260504035036 37 215 0.0 0.0 0.00 0.00 0.00 72 1013.4
20260504034548 37 215 0.0 1.0 0.00 0.00 0.00 71 1013.4
20260504034040 37 215 0.0 1.0 0.00 0.00 0.00 69 1013.4
20260504033539 37 215 0.0 1.0 0.00 0.00 0.00 68 1013.4
20260504033037 37 215 0.0 0.0 0.00 0.00 0.00 68 1013.4
20260504032536 37 215 0.0 0.0 0.00 0.00 0.00 67 1013.4
20260504032038 37 215 0.0 0.0 0.00 0.00 0.00 66 1013.3
20260504031536 37 215 0.0 0.0 0.00 0.00 0.00 67 1013.3
20260504031035 38 215 0.0 1.0 0.00 0.00 0.00 67 1013.2
20260504030535 38 215 0.0 1.0 0.00 0.00 0.00 67 1013.1
20260504030039 38 215 0.0 1.0 0.00 0.00 0.00 67 1013.1
20260504025536 38 215 0.0 1.0 0.00 0.00 0.00 67 1013.2
20260504025036 38 215 0.0 1.0 0.00 0.00 0.00 66 1013.2
20260504024535 38 215 0.0 1.0 0.00 0.00 0.00 66 1013.2
20260504024034 38 215 0.0 1.0 0.00 0.00 0.00 65 1013.3
20260504023535 39 215 0.0 1.0 0.00 0.00 0.00 62 1013.3
20260504023034 39 215 0.0 1.0 0.00 0.00 0.00 62 1013.3
20260504022534 39 215 0.0 1.0 0.00 0.00 0.00 60 1013.3
20260504022038 40 215 0.0 0.0 0.00 0.00 0.00 60 1013.3
20260504021533 40 215 0.0 0.0 0.00 0.00 0.00 60 1013.3
20260504021032 40 215 0.0 1.0 0.00 0.00 0.00 60 1013.2
20260504020533 40 215 0.0 1.0 0.00 0.00 0.00 59 1013.2
20260504020033 41 215 0.0 0.0 0.00 0.00 0.00 58 1013.2
20260504015533 41 215 0.0 0.0 0.00 0.00 0.00 57 1013.3
20260504015031 42 215 0.0 0.0 0.00 0.00 0.00 55 1013.2
20260504014530 42 215 0.0 0.0 0.00 0.00 0.00 55 1013.2
20260504014030 42 215 0.0 0.0 0.00 0.00 0.00 52 1013.1
20260504013530 43 215 0.0 0.0 0.00 0.00 0.00 52 1013.0
20260504013040 43 215 0.0 0.0 0.00 0.00 0.00 50 1012.9
20260504012532 43 215 0.0 0.0 0.00 0.00 0.00 49 1012.8
20260504012029 44 215 0.0 0.0 0.00 0.00 0.00 49 1012.8
20260504011528 44 215 0.0 0.0 0.00 0.00 0.00 50 1012.8
20260504011029 44 215 0.0 1.0 0.00 0.00 0.00 49 1012.7
20260504010528 44 215 0.0 1.0 0.00 0.00 0.00 48 1012.7
20260504010028 45 215 0.0 0.0 0.00 0.00 0.00 49 1012.6
20260504005528 45 215 0.0 0.0 0.00 0.00 0.00 48 1012.6
20260504005027 45 215 0.0 2.0 0.00 0.00 0.00 47 1012.5
20260504004528 45 215 0.0 2.0 0.00 0.00 0.00 48 1012.4
20260504004028 45 215 0.0 0.0 0.00 0.00 0.00 48 1012.4
20260504003527 45 215 0.0 0.0 0.00 0.00 0.00 49 1012.4
20260504003027 45 215 0.0 0.0 0.00 0.00 0.00 47 1012.3
20260504002527 46 215 0.0 0.0 0.00 0.00 0.00 47 1012.1
20260504002027 46 215 0.0 1.0 0.00 0.00 0.00 46 1012.0
20260504001527 46 215 0.0 1.0 0.00 0.00 0.00 45 1012.0
20260504001027 46 215 0.0 0.0 0.00 0.00 0.00 45 1011.9
20260504000526 47 215 0.0 1.0 0.00 0.00 0.00 44 1011.9
20260504000026 47 215 0.0 3.0 0.00 0.00 0.00 42 1011.8
20260503235526 47 215 0.0 3.0 0.00 0.00 0.00 42 1011.7
20260503235025 48 172 0.0 4.0 0.00 0.00 0.00 42 1011.6
20260503234527 48 217 0.0 4.0 0.00 0.00 0.00 41 1011.5
20260503234025 48 210 0.0 4.0 0.00 0.00 0.00 42 1011.5
20260503233526 48 13 0.0 3.0 0.00 0.00 0.00 42 1011.5
20260503233025 49 355 0.0 2.0 0.00 0.00 0.00 41 1011.4
20260503232525 49 355 0.0 3.0 0.00 0.00 0.00 41 1011.3
20260503232025 49 314 1.0 6.0 0.00 0.00 0.00 39 1011.4
20260503231525 50 238 1.0 10.0 0.00 0.00 0.00 38 1011.3
20260503231026 50 190 3.0 10.0 0.00 0.00 0.00 36 1011.3
20260503230527 51 238 2.0 8.0 0.00 0.00 0.00 36 1011.2
20260503230024 51 193 1.0 8.0 0.00 0.00 0.00 35 1011.2
20260503225523 51 171 3.0 8.0 0.00 0.00 0.00 36 1011.2
20260503225023 51 186 0.0 9.0 0.00 0.00 0.00 39 1011.2
20260503224523 51 182 2.0 9.0 0.00 0.00 0.00 36 1011.2
20260503224022 52 207 2.0 6.0 0.00 0.00 0.00 37 1011.2
20260503223522 51 174 0.0 7.0 0.00 0.00 0.00 39 1011.2
20260503223022 51 204 2.0 9.0 0.00 0.00 0.00 38 1011.2
20260503222521 51 192 4.0 14.0 0.00 0.00 0.00 37 1011.2
20260503222021 52 160 4.0 14.0 0.00 0.00 0.00 38 1011.1
20260503221521 52 178 2.0 7.0 0.00 0.00 0.00 40 1011.1
20260503221021 52 211 1.0 7.0 0.00 0.00 0.00 40 1011.1
20260503220521 51 237 1.0 12.0 0.00 0.00 0.00 40 1011.1
20260503220021 52 192 3.0 12.0 0.00 0.00 0.00 38 1011.1
20260503215520 52 180 3.0 12.0 0.00 0.00 0.00 39 1011.1
20260503215022 52 261 3.0 12.0 0.00 0.00 0.00 39 1011.1
20260503214518 51 311 3.0 9.0 0.00 0.00 0.00 39 1011.1
20260503214017 51 175 2.0 10.0 0.00 0.00 0.00 40 1011.1
20260503213516 51 167 4.0 13.0 0.00 0.00 0.00 41 1011.0
20260503213016 51 161 5.0 13.0 0.00 0.00 0.00 38 1011.0
20260503212516 51 203 4.0 11.0 0.00 0.00 0.00 41 1011.0
20260503212017 51 194 2.0 11.0 0.00 0.00 0.00 41 1011.0
20260503211513 50 205 4.0 11.0 0.00 0.00 0.00 41 1010.9
20260503211014 50 111 3.0 11.0 0.00 0.00 0.00 41 1010.9
20260503210512 50 192 4.0 11.0 0.00 0.00 0.00 41 1011.1
20260503210015 50 14 1.0 14.0 0.00 0.00 0.00 44 1010.9
20260503205513 50 59 3.0 14.0 0.00 0.00 0.00 43 1011.0
20260503205015 50 193 1.0 13.0 0.00 0.00 0.00 42 1011.1
20260503204511 50 184 3.0 11.0 0.00 0.00 0.00 43 1011.1
20260503204011 50 205 5.0 14.0 0.00 0.00 0.00 43 1010.9
20260503203511 49 202 5.0 13.0 0.00 0.00 0.00 43 1010.9
20260503203011 48 291 3.0 9.0 0.00 0.00 0.00 44 1010.8
20260503202511 48 131 2.0 9.0 0.00 0.00 0.00 43 1011.0
20260503202011 49 219 3.0 9.0 0.00 0.00 0.00 43 1011.0
20260503201510 49 200 4.0 12.0 0.00 0.00 0.00 43 1011.0
20260503201010 49 216 3.0 12.0 0.00 0.00 0.00 43 1011.1
20260503200510 49 268 2.0 10.0 0.00 0.00 0.00 43 1011.1
20260503200011 49 165 4.0 16.0 0.00 0.00 0.00 43 1011.2
20260503195510 49 211 5.0 16.0 0.00 0.00 0.00 41 1011.2
20260503195011 50 159 3.0 15.0 0.00 0.00 0.00 44 1011.1
20260503194507 49 119 3.0 11.0 0.00 0.00 0.00 45 1011.2
20260503194006 49 129 2.0 9.0 0.00 0.00 0.00 44 1011.2
20260503193505 48 143 3.0 11.0 0.00 0.00 0.00 46 1011.2
20260503193005 47 330 4.0 16.0 0.00 0.00 0.00 44 1011.2
20260503192504 47 177 2.0 18.0 0.00 0.00 0.00 45 1011.3
20260503192004 48 147 5.0 18.0 0.00 0.00 0.00 46 1011.3
20260503191504 48 207 3.0 19.0 0.00 0.00 0.00 45 1011.1
20260503191004 48 355 3.0 14.0 0.00 0.00 0.00 46 1011.3
20260503190504 48 337 4.0 13.0 0.00 0.00 0.00 44 1011.3
20260503190005 48 194 2.0 13.0 0.00 0.00 0.00 45 1011.2
20260503185504 48 180 3.0 9.0 0.00 0.00 0.00 45 1011.1
20260503185002 47 329 3.0 10.0 0.00 0.00 0.00 45 1011.2
20260503184507 47 149 3.0 11.0 0.00 0.00 0.00 45 1011.3
20260503184002 47 194 3.0 21.0 0.00 0.00 0.00 45 1011.4
20260503183503 47 243 3.0 11.0 0.00 0.00 0.00 46 1011.7
20260503183003 47 216 4.0 11.0 0.00 0.00 0.00 48 1011.4
20260503182502 47 304 3.0 12.0 0.00 0.00 0.00 48 1011.3
20260503182001 47 175 5.0 17.0 0.00 0.00 0.00 46 1011.4
20260503181503 47 217 6.0 17.0 0.00 0.00 0.00 45 1011.4
20260503181002 47 226 2.0 11.0 0.00 0.00 0.00 48 1011.2
20260503180501 47 202 5.0 14.0 0.00 0.00 0.00 49 1011.2
20260503180002 47 234 6.0 14.0 0.00 0.00 0.00 45 1011.2
20260503175502 47 248 3.0 16.0 0.00 0.00 0.00 45 1011.2
20260503175100 47 243 3.0 16.0 0.00 0.00 0.00 47 1011.1
20260503174600 47 160 3.0 12.0 0.00 0.00 0.00 44 1011.0
20260503174102 47 254 3.0 12.0 0.00 0.00 0.00 43 1011.1
20260503173601 47 118 4.0 11.0 0.00 0.00 0.00 45 1011.1
20260503173114 47 209 3.0 19.0 0.00 0.00 0.00 43 1011.0
20260503172558 47 212 7.0 19.0 0.00 0.00 0.00 46 1011.0
20260503172100 47 200 3.0 10.0 0.00 0.00 0.00 49 1011.1
20260503171555 47 302 3.0 14.0 0.00 0.00 0.00 45 1011.0
20260503171054 47 196 3.0 14.0 0.00 0.00 0.00 47 1010.9
20260503170554 47 331 6.0 14.0 0.00 0.00 0.00 45 1011.0
20260503150538 42 263 3.0 14.0 0.00 0.00 0.00 73 1011.9